TimeEDT,TemperatureF,Dew PointF,Humidity,Sea Level PressureIn,VisibilityMPH,Wind Direction,Wind SpeedMPH,Gust SpeedMPH,PrecipitationIn,Events,Conditions,WindDirDegrees,DateUTC
12:53 AM,64.9,57.9,78,29.87,10.0,South,17.3,26.5,0.00,Rain,Light Rain,170,2013-03-12 04:53:00
1:53 AM,64.9,59.0,81,29.85,10.0,South,19.6,28.8,0.00,Rain,Light Rain,190,2013-03-12 05:53:00
2:53 AM,64.9,60.1,84,29.87,10.0,SSW,17.3,24.2,0.00,Rain,Light Rain,200,2013-03-12 06:53:00
3:53 AM,64.9,61.0,87,29.85,10.0,SSW,10.4,-,0.00,,Overcast,200,2013-03-12 07:53:00
4:53 AM,64.9,61.0,87,29.85,10.0,South,12.7,-,0.00,Rain,Light Rain,190,2013-03-12 08:53:00
5:53 AM,64.0,61.0,90,29.85,7.0,South,10.4,-,0.04,Rain,Rain,170,2013-03-12 09:53:00
6:53 AM,63.0,61.0,93,29.85,10.0,South,10.4,-,0.03,Rain,Light Rain,180,2013-03-12 10:53:00
7:53 AM,63.0,61.0,93,29.86,7.0,South,11.5,-,0.01,Rain,Light Rain,180,2013-03-12 11:53:00
8:45 AM,62.6,60.8,94,29.88,2.5,South,10.4,-,0.00,Rain,Light Rain,190,2013-03-12 12:45:00
8:53 AM,63.0,61.0,93,29.88,2.5,South,10.4,-,0.00,Rain,Light Rain,180,2013-03-12 12:53:00
9:12 AM,62.6,60.8,94,29.88,2.5,South,9.2,-,0.01,Rain,Light Rain,190,2013-03-12 13:12:00
9:28 AM,64.4,60.8,88,29.88,2.5,South,13.8,-,0.01,Rain,Light Rain,190,2013-03-12 13:28:00
9:29 AM,64.4,60.8,88,29.88,7.0,SSW,12.7,-,0.01,Rain,Light Rain,200,2013-03-12 13:29:00
9:53 AM,64.0,61.0,90,29.88,8.0,SSW,11.5,-,0.01,,Overcast,200,2013-03-12 13:53:00
10:00 AM,-9999,-9999,N/A,-9999,-9999.0,North,-9999.0,-,N/A,,Sand,0,2013-03-12 14:00:00
10:53 AM,64.9,61.0,87,29.89,10.0,SW,9.2,-,N/A,,Overcast,230,2013-03-12 14:53:00
11:06 AM,64.4,62.6,94,29.90,2.0,WSW,11.5,-,0.00,,Light Drizzle,240,2013-03-12 15:06:00
11:53 AM,63.0,61.0,93,29.90,2.0,West,9.2,-,0.00,,Light Drizzle,260,2013-03-12 15:53:00
12:07 PM,64.4,60.8,88,29.90,2.0,West,8.1,-,0.01,,Overcast,260,2013-03-12 16:07:00
12:08 PM,64.4,60.8,88,29.90,7.0,West,8.1,-,0.01,,Overcast,260,2013-03-12 16:08:00
12:49 PM,60.8,57.2,88,29.90,10.0,West,10.4,-,0.01,,Overcast,280,2013-03-12 16:49:00
12:53 PM,60.1,57.9,93,29.90,10.0,WNW,12.7,-,0.01,,Overcast,300,2013-03-12 16:53:00
1:53 PM,62.1,57.0,84,29.89,10.0,West,11.5,-,N/A,,Overcast,270,2013-03-12 17:53:00
2:27 PM,62.6,57.2,82,29.88,10.0,West,11.5,-,N/A,,Overcast,270,2013-03-12 18:27:00
2:39 PM,64.4,55.4,73,29.88,10.0,West,12.7,-,N/A,,Mostly Cloudy,270,2013-03-12 18:39:00
2:53 PM,64.9,52.0,63,29.88,10.0,West,12.7,-,N/A,,Mostly Cloudy,270,2013-03-12 18:53:00
3:53 PM,68.0,48.0,49,29.86,10.0,WSW,10.4,-,N/A,,Mostly Cloudy,250,2013-03-12 19:53:00
4:53 PM,70.0,42.1,36,29.86,10.0,West,18.4,24.2,N/A,,Mostly Cloudy,270,2013-03-12 20:53:00
5:53 PM,68.0,41.0,37,29.88,10.0,West,9.2,-,N/A,,Mostly Cloudy,280,2013-03-12 21:53:00
6:53 PM,66.9,41.0,39,29.90,10.0,West,10.4,-,N/A,,Mostly Cloudy,280,2013-03-12 22:53:00
7:53 PM,60.1,43.0,53,29.92,10.0,West,6.9,-,N/A,,Mostly Cloudy,270,2013-03-12 23:53:00
8:53 PM,55.9,43.0,62,29.94,10.0,West,6.9,-,N/A,,Scattered Clouds,280,2013-03-13 00:53:00
9:53 PM,55.0,42.1,62,29.96,10.0,West,6.9,-,N/A,,Partly Cloudy,280,2013-03-13 01:53:00
10:53 PM,53.1,42.1,66,29.99,10.0,West,9.2,-,N/A,,Partly Cloudy,280,2013-03-13 02:53:00
11:53 PM,54.0,39.0,57,30.01,10.0,West,8.1,-,N/A,,Clear,280,2013-03-13 03:53:00